Wind_Speed
20 20 19 17 15 14 15 15 14 15 15 14 13 11 11 11 13 12 13 5 9 12 12 6 3 6 12 9 15 9 5 11 17 15 23 23 15 25 25 12 29 18 24 33 36
21 22 21 22 16 17 17 19 17 14 14 14 12 10 11 10 16 18 7 9 12 12 9 5 6 3 10 8 8 8 5 13 7 10 13 19 16 13 4 15 25 15 27 34 39
21 19 23 22 10 16 22 17 17 16 12 13 11 9 9 10 13 2 5 11 9 8 6 7 7 6 8 10 9 8 8 13 18 19 22 16 14 5 4 8 26 22 32 32 32
21 23 22 23 17 10 15 18 14 19 9 11 9 8 7 8 3 5 4 5 4 5 8 7 7 4 6 7 16 11 16 20 23 26 23 12 21 7 15 22 27 25 31 37 32
23 24 24 24 20 10 9 9 14 11 8 8 8 8 4 4 9 7 4 3 0 5 7 4 10 12 5 4 6 11 15 22 27 26 29 27 22 25 29 44 34 37 33 24 33
22 22 23 24 22 17 11 12 12 10 9 9 6 6 4 5 5 3 3 2 2 3 3 7 5 4 9 6 6 9 13 20 26 25 16 16 22 13 31 39 37 35 29 28 31
23 21 22 24 22 19 13 9 7 15 12 7 6 5 9 17 11 9 5 2 7 5 6 7 5 4 3 6 14 17 12 11 11 16 10 12 20 23 47 33 28 28 24 24 20
25 22 20 23 22 20 14 15 9 12 8 5 5 3 8 2 7 13 7 4 10 6 6 7 5 5 5 8 7 4 3 2 3 12 8 11 23 16 14 10 17 16 22 25 21
26 24 20 20 19 17 16 13 15 11 6 3 3 3 8 3 7 3 6 8 7 8 8 8 7 4 4 2 3 3 4 5 11 9 8 12 11 12 19 11 11 18 18 17 15
26 25 20 17 16 16 14 5 7 10 2 6 6 2 8 2 2 6 8 9 6 4 8 6 4 1 2 2 3 5 7 8 11 6 16 10 20 20 24 14 12 17 19 14 10
26 23 19 15 15 15 12 2 3 2 10 8 8 4 7 4 6 2 6 5 7 6 5 6 2 6 7 9 15 14 12 15 16 9 5 17 19 19 15 12 5 17 19 15 19
24 20 16 11 10 14 7 2 4 1 2 9 13 12 8 9 3 5 5 4 6 6 4 3 7 10 10 8 10 8 11 12 7 6 5 9 16 16 7 5 10 13 16 11 22
19 15 10 8 7 7 3 4 3 4 0 2 4 7 7 6 3 9 3 2 5 4 7 3 6 5 6 7 9 6 5 7 14 10 9 6 8 8 1 4 9 16 11 21 28
18 10 8 4 3 1 5 3 5 5 2 2 1 1 3 2 1 3 2 2 3 4 5 5 4 7 7 8 9 5 3 12 14 10 4 4 4 8 15 4 6 10 9 22 24
18 14 9 4 2 3 3 6 8 4 4 1 2 1 2 2 1 1 1 2 3 3 4 7 4 3 4 5 7 7 7 11 8 9 4 4 3 9 7 12 13 5 4 22 28
23 17 12 10 7 4 4 9 6 2 3 2 2 1 1 2 1 1 1 2 3 3 3 7 5 3 2 8 8 12 9 10 3 1 2 4 3 9 14 9 13 12 13 7 27
20 14 8 5 5 4 4 5 2 5 4 1 2 3 5 2 2 2 2 1 3 5 4 6 3 3 4 6 6 14 5 3 3 3 4 4 10 8 17 9 9 13 23 2 5
17 17 16 9 8 6 4 1 6 5 3 1 2 3 2 2 0 1 2 3 6 5 2 4 7 6 6 3 4 5 3 3 4 1 3 8 5 6 13 14 11 19 28 16 3
21 25 21 15 10 8 4 4 4 2 4 1 1 0 2 1 2 1 5 4 3 6 4 5 4 5 5 2 3 7 3 1 3 1 3 4 8 6 18 17 16 18 22 21 26
14 20 19 12 13 5 2 9 4 5 6 3 2 1 3 1 1 1 4 6 7 7 5 4 2 5 4 9 9 4 4 4 4 4 4 3 4 7 13 11 12 13 16 18 15
11 9 13 14 8 6 3 5 4 8 8 6 6 6 5 3 5 4 6 3 7 7 8 5 3 6 6 5 5 6 5 4 4 3 4 1 4 12 11 9 8 9 18 19 22
12 4 6 6 6 3 3 2 7 10 16 5 5 6 5 8 6 4 3 4 15 6 3 3 3 2 1 4 4 4 5 3 3 4 3 2 3 8 13 8 13 19 24 24 19
5 5 12 7 4 4 5 3 4 6 6 6 6 6 5 5 4 4 4 4 11 5 2 4 3 3 7 7 7 5 6 4 2 2 2 1 1 7 11 14 20 19 26 27 26
3 3 6 6 3 1 3 5 4 8 4 8 4 4 3 4 5 3 2 3 4 3 6 3 3 5 5 6 3 4 6 6 4 4 2 2 3 7 9 10 16 26 26 25 25
11 2 1 1 4 4 3 3 5 5 9 14 5 8 4 4 3 3 2 1 4 5 4 4 3 3 2 3 2 4 3 4 3 4 4 3 1 5 7 6 11 20 22 25 25
6 7 4 4 6 4 4 4 4 3 5 5 5 6 8 4 2 2 4 4 1 4 3 4 0 2 4 2 4 2 5 4 3 3 2 2 3 4 10 13 18 19 18 20 20
10 10 9 5 5 2 1 2 3 2 3 5 3 1 5 2 4 5 7 7 3 2 2 3 3 3 3 2 4 5 4 3 1 2 4 2 3 3 3 7 11 13 15 16 15
Wind_Direction
343 341 334 279 273 292 295 274 306 313 320 312 304 308 296 299 298 292 266 214 209 214 249 266 222 244 230 227 218 210 230 242 239 245 255 276 285 286 261 286 253 247 252 264 267
339 339 339 336 276 275 279 278 293 309 319 310 301 306 297 310 306 295 188 204 242 236 242 209 238 231 194 203 203 192 225 247 233 242 266 276 273 267 288 289 276 279 265 266 266
339 337 337 332 327 270 267 272 279 291 301 302 301 305 304 318 320 197 108 205 244 233 237 205 215 202 209 208 201 201 231 242 254 260 260 284 265 263 250 255 252 255 261 271 254
337 338 336 338 331 298 280 257 267 277 292 300 297 304 301 304 275 176 219 296 253 219 169 211 219 210 229 212 218 250 238 238 254 253 259 276 262 238 225 237 262 268 257 264 268
326 329 332 342 338 306 286 283 274 296 305 303 293 298 310 245 260 232 253 296 145 157 152 209 243 241 218 245 256 250 263 256 256 258 244 248 239 229 233 249 254 254 262 249 266
312 316 323 332 338 327 278 282 307 298 292 288 271 278 288 256 146 249 279 292 201 224 213 223 224 249 279 250 232 264 260 253 257 256 227 235 253 246 254 258 244 244 257 234 234
318 304 310 319 332 330 272 276 273 274 276 284 266 274 260 249 175 179 259 228 261 244 209 223 233 253 283 276 260 271 274 273 256 239 230 262 258 246 255 262 247 246 237 220 217
315 315 302 309 323 328 317 252 273 280 276 264 249 241 254 273 211 237 229 215 243 275 243 246 274 269 220 270 288 265 258 290 235 212 213 165 263 279 256 268 256 203 206 203 214
315 313 308 304 313 322 320 253 254 280 278 206 208 219 263 306 248 232 207 207 218 271 246 273 287 241 245 263 304 267 294 285 300 231 193 199 272 252 268 304 245 216 218 228 213
315 310 310 307 311 317 341 259 250 282 220 167 178 275 259 61 185 190 219 223 224 188 215 222 230 267 212 106 256 295 280 270 269 267 202 212 254 271 277 252 241 233 230 241 226
316 307 307 308 311 318 338 266 177 129 185 192 192 216 95 318 284 250 176 226 246 231 213 198 182 241 244 236 249 268 315 314 314 323 160 238 262 269 273 254 240 245 238 220 164
308 310 302 303 307 311 316 170 98 122 281 253 233 255 281 304 289 191 212 211 187 223 232 226 251 248 238 248 247 277 303 312 309 242 228 273 272 269 253 222 228 277 258 189 154
315 310 292 289 291 304 349 197 185 143 235 55 229 244 248 233 273 150 210 303 234 265 281 238 265 337 344 322 310 315 305 302 317 318 212 305 298 336 1 258 297 300 271 175 175
350 336 326 298 318 78 96 124 119 123 77 107 129 168 215 219 296 184 233 266 294 252 306 274 360 27 356 327 3 313 342 343 326 344 312 127 297 350 327 350 329 301 144 161 169
2 347 349 86 29 31 35 113 135 168 103 201 96 142 124 244 122 155 250 254 293 314 69 265 321 7 333 325 328 256 311 305 289 299 328 341 70 320 14 354 14 284 153 180 176
22 20 66 58 65 44 100 142 124 53 77 80 106 155 164 261 126 82 324 300 302 324 246 251 289 104 263 289 280 276 301 301 252 252 25 290 117 359 2 57 353 11 7 192 184
14 21 43 83 93 68 125 121 106 62 258 28 108 178 248 176 148 209 196 328 52 31 341 333 20 324 338 333 333 358 10 347 14 16 216 358 74 53 3 27 81 8 2 80 85
44 49 57 68 36 91 122 338 64 42 71 256 166 235 107 188 81 202 353 63 12 35 359 59 350 358 338 9 298 309 54 345 20 56 323 22 46 20 5 39 39 42 5 30 52
59 59 53 59 72 108 354 45 54 354 312 47 275 344 42 68 117 17 85 31 36 31 38 31 323 337 354 12 30 313 22 165 303 182 47 5 355 343 5 17 49 65 23 19 39
62 53 48 62 76 18 360 79 66 25 342 322 318 85 105 118 10 102 64 359 343 356 31 319 346 332 332 26 344 54 295 35 345 36 77 342 65 6 7 8 17 32 47 23 16
90 61 80 77 44 26 48 49 13 15 10 34 354 42 50 43 33 47 11 26 353 323 3 28 68 314 32 9 29 1 20 26 119 31 20 50 69 8 354 358 23 15 39 36 38
70 74 76 41 62 21 41 20 4 352 15 12 47 41 31 25 25 68 83 9 347 340 11 331 97 70 5 4 24 67 36 47 85 335 35 81 59 324 340 0 39 37 43 50 52
56 67 44 54 69 360 331 53 56 19 4 17 17 17 26 34 78 73 72 0 9 38 37 334 25 37 342 348 357 25 1 41 75 28 21 63 42 323 339 13 24 32 45 48 49
354 50 10 49 101 104 16 0 47 32 37 15 0 24 28 39 30 72 85 355 358 38 5 89 67 138 163 211 235 335 350 358 78 67 340 96 312 357 1 16 15 17 29 48 52
6 18 303 301 347 355 60 39 38 20 352 21 37 33 3 43 24 57 96 87 8 357 34 77 101 32 331 329 332 246 285 335 88 197 119 269 38 340 342 9 17 22 39 44 46
31 345 347 293 320 349 33 31 57 14 32 358 56 28 42 74 49 338 357 38 29 342 54 9 114 87 342 66 40 310 280 245 223 205 169 287 194 327 342 22 39 36 33 35 38
44 3 332 323 325 3 331 89 65 102 78 66 336 74 58 38 54 79 83 84 88 94 43 68 103 48 316 14 40 4 217 209 285 158 158 208 189 290 349 59 36 29 38 35 30
Height
1503 1500 1498 1495 1494 1494 1493 1491 1491 1491 1490 1490 1488 1489 1487 1486 1485 1484 1481 1483 1484 1485 1485 1486 1489 1491 1494 1495 1497 1500 1497 1490 1487 1486 1473 1473 1475 1471 1468 1466 1463 1463 1463 1461 1463
1500 1498 1494 1492 1490 1490 1489 1488 1488 1487 1487 1486 1486 1485 1484 1483 1482 1478 1478 1481 1482 1482 1482 1484 1487 1487 1490 1491 1492 1495 1489 1480 1481 1477 1472 1470 1470 1467 1465 1464 1457 1462 1459 1460 1458
1496 1493 1490 1486 1483 1485 1486 1485 1485 1484 1482 1482 1482 1482 1482 1481 1479 1475 1475 1479 1479 1479 1479 1482 1484 1486 1486 1486 1486 1485 1481 1477 1475 1473 1471 1468 1464 1464 1462 1461 1455 1456 1454 1453 1449
1495 1492 1488 1484 1480 1479 1478 1480 1482 1480 1479 1479 1479 1479 1480 1480 1482 1474 1475 1477 1477 1477 1478 1480 1483 1483 1482 1481 1478 1478 1473 1472 1467 1468 1468 1463 1462 1458 1458 1451 1450 1451 1447 1445 1440
1492 1488 1485 1481 1479 1477 1475 1475 1477 1477 1476 1475 1476 1476 1478 1478 1474 1474 1474 1475 1476 1476 1476 1478 1479 1478 1477 1474 1473 1470 1466 1465 1463 1461 1459 1457 1454 1448 1443 1440 1445 1441 1445 1441 1439
1488 1484 1481 1478 1476 1474 1473 1472 1473 1474 1474 1474 1473 1475 1476 1477 1471 1472 1473 1474 1474 1474 1474 1476 1475 1474 1474 1472 1471 1462 1461 1458 1456 1455 1455 1456 1450 1454 1433 1434 1435 1434 1434 1435 1436
1482 1479 1476 1474 1472 1470 1471 1469 1469 1471 1471 1471 1472 1472 1473 1469 1469 1471 1472 1473 1473 1473 1474 1473 1473 1473 1472 1469 1464 1460 1458 1452 1448 1449 1451 1452 1443 1438 1423 1429 1426 1425 1422 1425 1430
1477 1475 1472 1470 1468 1467 1466 1466 1466 1467 1467 1469 1470 1471 1468 1466 1467 1469 1470 1470 1471 1471 1471 1471 1471 1471 1470 1465 1461 1458 1454 1454 1439 1442 1446 1449 1427 1424 1422 1420 1414 1414 1420 1423 1425
1474 1471 1468 1466 1464 1463 1461 1461 1464 1465 1465 1467 1470 1470 1466 1465 1465 1466 1467 1469 1469 1469 1469 1469 1470 1468 1466 1464 1463 1456 1462 1453 1446 1436 1439 1442 1429 1417 1416 1413 1413 1412 1412 1412 1418
1469 1466 1464 1463 1461 1460 1458 1458 1460 1462 1464 1467 1469 1472 1464 1465 1464 1464 1466 1467 1468 1468 1469 1469 1469 1467 1463 1466 1466 1458 1454 1447 1444 1431 1432 1433 1424 1410 1410 1410 1409 1407 1407 1409 1409
1463 1461 1460 1459 1458 1457 1458 1458 1462 1463 1463 1461 1462 1461 1461 1464 1463 1463 1464 1466 1467 1468 1467 1465 1468 1466 1459 1457 1457 1455 1446 1445 1434 1428 1428 1425 1419 1410 1405 1402 1404 1408 1411 1414 1414
1457 1455 1455 1455 1456 1455 1455 1456 1458 1461 1462 1459 1461 1461 1461 1463 1463 1463 1465 1466 1465 1466 1462 1465 1464 1453 1450 1449 1450 1444 1443 1443 1436 1431 1430 1423 1412 1403 1401 1402 1402 1400 1403 1403 1411
1451 1450 1450 1451 1452 1453 1454 1457 1457 1459 1461 1459 1459 1460 1462 1464 1463 1463 1464 1463 1462 1462 1459 1461 1454 1447 1447 1448 1446 1442 1441 1440 1434 1423 1424 1424 1413 1404 1398 1398 1398 1398 1397 1400 1408
1449 1447 1448 1448 1453 1452 1453 1456 1456 1457 1461 1463 1461 1461 1462 1463 1463 1462 1462 1464 1461 1459 1456 1456 1451 1451 1452 1452 1448 1448 1437 1435 1432 1434 1436 1422 1431 1410 1406 1401 1400 1398 1398 1402 1407
1449 1448 1447 1448 1452 1453 1455 1455 1456 1458 1459 1463 1462 1462 1462 1464 1464 1463 1462 1462 1462 1459 1461 1461 1453 1453 1454 1450 1449 1446 1439 1437 1435 1436 1431 1425 1434 1436 1413 1408 1408 1405 1403 1405 1408
1453 1450 1449 1452 1454 1455 1454 1456 1457 1462 1466 1463 1463 1463 1464 1462 1462 1461 1462 1462 1460 1459 1456 1455 1450 1452 1452 1448 1445 1440 1439 1434 1430 1430 1451 1427 1428 1431 1424 1423 1418 1414 1412 1410 1412
1456 1453 1453 1455 1457 1456 1457 1458 1460 1469 1467 1466 1463 1463 1463 1462 1462 1461 1462 1463 1467 1478 1475 1459 1455 1452 1452 1450 1443 1442 1445 1468 1455 1467 1453 1428 1434 1448 1432 1426 1426 1425 1421 1417 1416
1460 1457 1456 1457 1458 1459 1459 1460 1459 1463 1465 1460 1460 1461 1462 1461 1462 1461 1462 1468 1464 1465 1480 1483 1479 1457 1453 1454 1454 1451 1450 1451 1441 1437 1444 1434 1448 1454 1437 1433 1430 1426 1428 1425 1425
1464 1461 1460 1461 1461 1463 1464 1461 1470 1468 1465 1462 1462 1462 1463 1461 1461 1462 1468 1472 1469 1467 1475 1480 1473 1458 1455 1453 1453 1454 1460 1450 1449 1446 1447 1456 1453 1442 1441 1435 1435 1435 1433 1433 1430
1466 1464 1464 1465 1465 1466 1466 1462 1469 1467 1466 1464 1464 1460 1464 1463 1462 1462 1470 1476 1474 1469 1468 1469 1480 1462 1458 1457 1455 1455 1454 1461 1464 1464 1452 1461 1468 1464 1456 1452 1442 1438 1435 1434 1430
1467 1466 1471 1469 1469 1468 1471 1473 1471 1468 1467 1466 1467 1466 1465 1464 1464 1469 1481 1480 1475 1471 1468 1471 1475 1476 1467 1469 1469 1465 1467 1465 1474 1469 1458 1464 1469 1465 1462 1457 1453 1448 1445 1442 1436
1469 1471 1474 1471 1473 1473 1479 1474 1473 1472 1468 1468 1468 1469 1469 1469 1473 1474 1481 1482 1478 1475 1476 1475 1479 1497 1476 1472 1467 1468 1471 1474 1487 1483 1471 1479 1476 1468 1464 1460 1458 1455 1452 1449 1445
1475 1476 1475 1473 1478 1482 1475 1474 1476 1475 1474 1473 1473 1472 1470 1473 1480 1477 1482 1482 1480 1478 1481 1479 1492 1520 1495 1486 1476 1477 1476 1475 1481 1483 1494 1475 1478 1470 1466 1462 1460 1460 1459 1454 1450
1482 1481 1480 1478 1478 1479 1478 1478 1477 1477 1477 1476 1476 1472 1472 1475 1475 1480 1483 1483 1482 1481 1480 1479 1493 1502 1515 1503 1491 1489 1483 1479 1487 1510 1492 1489 1484 1479 1473 1469 1465 1461 1460 1460 1458
1491 1489 1486 1489 1482 1479 1478 1480 1482 1483 1479 1479 1478 1480 1479 1483 1480 1482 1482 1484 1483 1482 1482 1484 1505 1495 1489 1486 1484 1486 1483 1481 1499 1489 1501 1486 1482 1479 1476 1473 1471 1467 1464 1462 1461
1495 1495 1489 1485 1484 1482 1480 1484 1484 1484 1485 1485 1486 1486 1483 1487 1488 1487 1486 1487 1488 1485 1486 1488 1505 1505 1508 1487 1489 1485 1480 1479 1478 1478 1478 1478 1478 1480 1474 1473 1472 1471 1468 1466 1465
1496 1500 1499 1489 1486 1486 1485 1483 1485 1484 1487 1487 1488 1486 1489 1490 1488 1488 1487 1487 1488 1488 1490 1494 1504 1508 1502 1487 1499 1505 1479 1476 1473 1472 1476 1485 1480 1479 1476 1474 1474 1472 1471 1470 1469